Weather History for Gainesville, FL

Change the Weather History Date:

Tuesday, December 10, 2013

  Actual Average Record
Temperature  
Mean Temperature 67 °F 57 °F  
Max Temperature 81 °F 69 °F 84 °F (1961)
Min Temperature 53 °F 45 °F 23 °F (1917)
Degree Days  
Heating Degree Days 0 9  
Month to date heating degree days 10 79  
Since 1 July heating degree days 103 240  
Cooling Degree Days 2 1  
Month to date cooling degree days 33 10  
Year to date cooling degree days 2858 2626  
Growing Degree Days 18 (Base 50)    
Moisture  
Dew Point 65 °F    
Average Humidity 81    
Maximum Humidity 100    
Minimum Humidity 62    
Precipitation  
Precipitation 0.29 in 0.07 in 3.56 in (2012)
Month to date precipitation 0.29 0.74  
Year to date precipitation 43.58 45.67  
Snow  
Snow 0.00 in 0.00 in 0.00 in ()
Month to date snowfall 0.0 0.0  
Since 1 July snowfall 0.0 0.0  
Snow Depth 0.00 in    
Sea Level Pressure  
Sea Level Pressure 30.12 in    
Wind  
Wind Speed 8 mph (WSW)    
Max Wind Speed 17 mph    
Max Gust Speed 24 mph    
Visibility 7 miles    
Events Rain    
T = Trace of Precipitation, MM = Missing Value Source: NWS Daily Summary

Daily Weather History Graph

Daily Weather History Graph

Search for Another Location

Airport:

Trip Planner

Search our weather history database for the weather conditions in past years. The results will help you decide how hot, cold, wet, or windy it might be!

Date:

Astronomy

Dec. 10, 2013 Rise Set
Actual Time 7:13 AM EST 5:30 PM EST
Civil Twilight 6:47 AM EST 5:56 PM EST
Nautical Twilight 6:17 AM EST 6:26 PM EST
Astronomical Twilight 5:48 AM EST 6:55 PM EST
Moon 1:08 PM EST (12/10) 12:55 AM EST (12/10)
Length of Visible Light 11h 09m
Length of Day
10h 16m
First Quarter, 61% of the Moon is Illuminated
Dec 10
First Quarter
Dec 17
Full
Dec 25
Last Quarter
Jan 1
New
Jan 7
First Quarter

Hourly Weather History & Observations

Time (EST) Temp. Heat Index Dew Point Humidity Pressure Visibility Wind Dir Wind Speed Gust Speed Precip Events Conditions
12:04 AM 64.9 °F - 64.9 °F 100% 30.11 in 1.8 mi Calm Calm - N/A   Overcast
12:10 AM 66.0 °F - 64.9 °F 96% 30.11 in 0.8 mi ESE 3.5 mph - N/A   Overcast
12:36 AM 64.0 °F - 64.0 °F 100% 30.10 in 2.0 mi South 3.5 mph - N/A   Overcast
12:43 AM 64.9 °F - 64.0 °F 97% 30.10 in 4.0 mi South 3.5 mph - N/A   Mostly Cloudy
12:50 AM 64.4 °F - 64.4 °F 100% 30.10 in 6.0 mi South 3.5 mph - N/A   Mostly Cloudy
12:53 AM 66.0 °F - 64.9 °F 96% 30.10 in 6.0 mi South 3.5 mph - N/A   Mostly Cloudy
1:53 AM 64.0 °F - 64.0 °F 100% 30.10 in 6.0 mi SSE 3.5 mph - N/A   Partly Cloudy
2:02 AM 64.0 °F - 64.0 °F 100% 30.10 in 2.5 mi SE 4.6 mph - N/A   Mostly Cloudy
2:15 AM 64.0 °F - 64.0 °F 100% 30.10 in 6.0 mi Calm Calm - N/A   Mostly Cloudy
2:27 AM 64.9 °F - 64.9 °F 100% 30.10 in 2.5 mi SSE 3.5 mph - N/A   Overcast
2:36 AM 64.0 °F - 64.0 °F 100% 30.10 in 4.0 mi Calm Calm - N/A   Overcast
2:46 AM 64.9 °F - 64.9 °F 100% 30.10 in 4.0 mi South 4.6 mph - N/A   Overcast
2:53 AM 66.0 °F - 64.9 °F 96% 30.09 in 6.0 mi South 3.5 mph - N/A   Overcast
3:53 AM 66.0 °F - 66.0 °F 100% 30.10 in 8.0 mi Calm Calm - N/A   Overcast
4:53 AM 66.9 °F - 64.9 °F 93% 30.10 in 9.0 mi SSW 3.5 mph - N/A   Mostly Cloudy
5:53 AM 66.9 °F - 64.9 °F 93% 30.10 in 9.0 mi South 6.9 mph - N/A   Overcast
6:53 AM 66.9 °F - 66.0 °F 97% 30.11 in 9.0 mi South 6.9 mph - N/A   Clear
7:53 AM 68.0 °F - 66.9 °F 96% 30.11 in 8.0 mi SSW 6.9 mph - N/A   Mostly Cloudy
8:17 AM 69.1 °F - 66.9 °F 93% 30.12 in 8.0 mi SSW 8.1 mph - N/A   Overcast
8:53 AM 70.0 °F - 68.0 °F 93% 30.13 in 9.0 mi SW 9.2 mph - N/A   Mostly Cloudy
9:07 AM 71.1 °F - 68.0 °F 90% 30.14 in 10.0 mi SSW 10.4 mph - N/A   Scattered Clouds
9:53 AM 73.0 °F - 68.0 °F 84% 30.14 in 10.0 mi SSW 11.5 mph - N/A   Mostly Cloudy
10:53 AM 77.0 °F - 68.0 °F 74% 30.14 in 10.0 mi SSW 15.0 mph 19.6 mph N/A   Mostly Cloudy
11:01 AM 77.0 °F - 68.0 °F 74% 30.14 in 10.0 mi SW 13.8 mph 21.9 mph N/A   Mostly Cloudy
11:53 AM 79.0 °F - 68.0 °F 69% 30.12 in 10.0 mi SW 15.0 mph 21.9 mph N/A   Mostly Cloudy
12:20 PM 79.0 °F - 66.9 °F 66% 30.10 in 10.0 mi SW 15.0 mph 23.0 mph N/A   Overcast
12:53 PM 80.1 °F 82.3 °F 66.9 °F 64% 30.08 in 10.0 mi SSW 13.8 mph - N/A   Overcast
1:53 PM 72.0 °F - 68.0 °F 87% 30.07 in 3.0 mi NNW 13.8 mph - 0.00 in Rain Light Rain
2:00 PM 70.0 °F - 66.9 °F 90% 30.09 in 1.8 mi WNW 11.5 mph - 0.00 in Rain Heavy Rain
2:03 PM 69.1 °F - 66.9 °F 93% 30.10 in 0.8 mi WNW 11.5 mph - 0.04 in Rain Heavy Rain
2:16 PM 69.1 °F - 68.0 °F 96% 30.09 in 2.0 mi West 4.6 mph - 0.25 in Rain Rain
2:23 PM 69.1 °F - 68.0 °F 96% 30.08 in 2.5 mi West 5.8 mph - 0.27 in Rain Rain
2:31 PM 70.0 °F - 69.1 °F 97% 30.08 in 6.0 mi SW 4.6 mph - 0.28 in Rain Light Rain
2:53 PM 71.1 °F - 69.1 °F 93% 30.08 in 10.0 mi WSW 9.2 mph - 0.28 in Rain Light Rain
3:07 PM 72.0 °F - 70.0 °F 93% 30.08 in 10.0 mi WSW 8.1 mph - 0.01 in   Overcast
3:31 PM 72.0 °F - 71.1 °F 97% 30.08 in 10.0 mi West 6.9 mph - 0.01 in   Mostly Cloudy
3:44 PM 72.0 °F - 70.0 °F 93% 30.09 in 10.0 mi WNW 10.4 mph - 0.01 in Rain Light Rain
3:53 PM 72.0 °F - 69.1 °F 91% 30.09 in 10.0 mi NW 15.0 mph 20.7 mph 0.01 in Rain Light Rain
4:12 PM 70.0 °F - 66.0 °F 87% 30.10 in 10.0 mi NNW 6.9 mph - 0.00 in   Overcast
4:53 PM 70.0 °F - 66.0 °F 87% 30.11 in 10.0 mi NNW 5.8 mph - 0.00 in   Overcast
5:37 PM 69.1 °F - 64.0 °F 84% 30.14 in 10.0 mi NNW 8.1 mph - N/A   Overcast
5:53 PM 68.0 °F - 64.0 °F 87% 30.14 in 10.0 mi NNW 6.9 mph - N/A   Overcast
6:24 PM 66.9 °F - 61.0 °F 81% 30.16 in 10.0 mi NNW 8.1 mph - N/A   Overcast
6:53 PM 66.0 °F - 60.1 °F 81% 30.17 in 10.0 mi NNW 6.9 mph - N/A   Partly Cloudy
7:53 PM 63.0 °F - 57.9 °F 84% 30.20 in 10.0 mi North 8.1 mph - N/A   Clear
8:53 PM 60.1 °F - 53.1 °F 78% 30.22 in 10.0 mi North 10.4 mph - N/A   Clear
9:53 PM 57.0 °F - 51.1 °F 81% 30.24 in 10.0 mi North 6.9 mph - N/A   Clear
10:53 PM 55.0 °F - 48.9 °F 80% 30.25 in 10.0 mi North 6.9 mph - N/A   Clear
11:53 PM 54.0 °F - 46.9 °F 77% 30.25 in 10.0 mi NNE 10.4 mph - N/A   Clear